Location: Unspecified
(48.2082°N, 0.0000°E)
Time: 18:51:05
(UTC+00:00)

Vanguard 1 - Visible Passes

Search period start: 12 June 2021 00:00
Search period end: 22 June 2021 00:00
Orbit: 650 x 3832 km, 34.2° (Epoch: 12 June)

Date Brightness Start Highest point End Pass type
(mag) Time Alt. Az. Time Alt. Az. Time Alt. Az.
12 Jun 11.6 02:17:56 10° WSW 02:29:30 35° SSW 02:36:21 10° SE visible
12 Jun 12.7 21:50:52 10° SSW 22:07:03 30° SSE 22:18:07 10° ESE visible
13 Jun 11.9 00:13:43 10° WSW 00:29:20 41° S 00:38:29 10° ESE visible
13 Jun 11.6 02:39:08 10° WSW 02:50:06 33° SSW 02:56:44 10° SE visible
13 Jun 12.5 22:10:37 10° SW 22:27:57 35° SSE 22:39:20 10° ESE visible
14 Jun 11.9 00:34:35 10° WSW 00:50:10 42° S 00:59:11 10° ESE visible
14 Jun 11.7 03:00:27 10° W 03:10:36 29° SSW 03:16:56 10° SSE visible
14 Jun 12.4 22:30:46 10° SW 22:48:52 39° SSE 23:00:21 10° ESE visible
15 Jun 11.8 00:55:38 10° WSW 01:10:57 42° S 01:19:47 10° ESE visible
15 Jun 13.1 20:29:41 10° SSW 20:46:47 28° SSE 20:59:41 10° E visible
15 Jun 12.3 22:51:15 10° SW 23:09:47 43° S 23:21:14 10° ESE visible
16 Jun 11.8 01:16:48 10° WSW 01:31:41 41° SSW 01:40:17 10° SE visible
16 Jun 12.9 20:49:02 10° SSW 21:07:37 34° SSE 21:21:07 10° E visible
16 Jun 12.2 23:11:58 10° WSW 23:30:41 46° S 23:42:02 10° ESE visible
17 Jun 11.8 01:38:04 10° W 01:52:19 38° SSW 02:00:40 10° SE visible
17 Jun 12.8 21:08:52 10° SW 21:28:29 39° SSE 21:42:20 10° E visible
17 Jun 12.2 23:32:54 10° WSW 23:51:35 47° S 00:02:44 10° ESE visible
18 Jun 11.9 01:59:26 10° W 02:12:50 34° SSW 02:20:54 10° SE visible
18 Jun 12.7 21:29:04 10° SW 21:49:24 43° SSE 22:03:21 10° E visible
18 Jun 12.1 23:53:58 10° WSW 00:12:26 47° S 00:23:21 10° ESE visible
19 Jun 12.0 02:20:57 10° W 02:33:15 30° SSW 02:40:57 10° SSE visible
19 Jun 12.6 21:49:34 10° SW 22:10:20 47° S 22:24:16 10° ESE visible
20 Jun 12.1 00:15:10 10° WSW 00:33:12 46° SSW 00:43:53 10° SE visible
20 Jun 12.2 02:42:39 10° W 02:53:31 25° SW 03:00:43 10° SSE visible
20 Jun 12.5 22:10:18 10° WSW 22:31:18 49° S 22:45:06 10° ESE visible
21 Jun 12.1 00:36:28 10° W 00:53:54 43° SSW 01:04:18 10° SE visible
21 Jun 12.3 03:04:42 10° W 03:13:40 19° SW 03:20:02 10° S visible
21 Jun 12.5 22:31:13 10° WSW 22:52:14 51° S 23:05:50 10° ESE visible
